Lone Rock, WI

2:09 PM CDT on May 22, 2017 (GMT -0500)
Tri-County Regional

Weather History for KLNR - October, 2013

Change the Weather History Date:

Saturday, October 26, 2013

  Actual Average Record
Temperature  
Mean Temperature 42 °F -  
Max Temperature 52 °F 53 °F 75 °F (1998)
Min Temperature 34 °F 36 °F 28 °F (2005)
Degree Days  
Heating Degree Days 22    
Moisture  
Dew Point 30 °F    
Average Humidity 55    
Maximum Humidity 78    
Minimum Humidity 43    
Precipitation  
Precipitation 0.00 in - - ()
Sea Level Pressure  
Sea Level Pressure 29.94 in    
Wind  
Wind Speed 11 mph (WNW)    
Max Wind Speed 17 mph    
Max Gust Speed 34 mph    
Visibility 10 miles    
Events      
Averages and records for this station are not official NWS values.
T = Trace of Precipitation, MM = Missing Value Source: NWS Daily Summary

Daily Weather History Graph

Daily Weather History Graph

Search for Another Location

Airport or City:

Trip Planner

Search our weather history database for the weather conditions in past years. The results will help you decide how hot, cold, wet, or windy it might be!

Date:

Astronomy

Oct. 26, 2013 Rise Set
Actual Time 7:28 AM CDT 6:00 PM CDT
Civil Twilight 6:59 AM CDT 6:29 PM CDT
Nautical Twilight 6:25 AM CDT 7:02 PM CDT
Astronomical Twilight 5:52 AM CDT 7:35 PM CDT
Moon No Moon Rise 1:45 PM CDT (10/26)
Length of Visible Light 11h 30m
Length of Day
10h 31m
Waning Gibbous, 53% of the Moon is Illuminated
Oct 26
Waning Gibbous
Oct 26
Last Quarter
Nov 3
New
Nov 9
First Quarter
Nov 17
Full

Hourly Weather History & Observations

Time (CDT) Temp. Windchill Dew Point Humidity Pressure Visibility Wind Dir Wind Speed Gust Speed Precip Events Conditions
12:56 AM 48.9 °F - 27.0 °F 43% 29.86 in 10.0 mi WSW 13.8 mph 24.2 mph N/A   Mostly Cloudy
1:56 AM 48.9 °F - 28.0 °F 44% 29.83 in 10.0 mi WSW 11.5 mph 18.4 mph N/A   Overcast
2:56 AM 48.0 °F - 28.9 °F 48% 29.81 in 10.0 mi WSW 9.2 mph - N/A   Mostly Cloudy
3:56 AM 46.9 °F - 30.0 °F 52% 29.79 in 10.0 mi West 8.1 mph - N/A   Clear
4:56 AM 46.9 °F - 30.9 °F 54% 29.79 in 10.0 mi West 11.5 mph - N/A   Clear
5:56 AM 45.0 °F 40.1 °F 32.0 °F 60% 29.80 in 10.0 mi West 9.2 mph - N/A   Clear
6:56 AM 44.1 °F 40.1 °F 33.1 °F 65% 29.82 in 10.0 mi West 6.9 mph - N/A   Clear
7:56 AM 43.0 °F 38.2 °F 34.0 °F 71% 29.84 in 10.0 mi West 8.1 mph - N/A   Clear
8:56 AM 46.0 °F 39.9 °F 34.0 °F 63% 29.87 in 10.0 mi WNW 13.8 mph - N/A   Partly Cloudy
9:56 AM 48.9 °F - 32.0 °F 52% 29.89 in 10.0 mi WNW 16.1 mph 26.5 mph N/A   Partly Cloudy
10:56 AM 50.0 °F - 30.9 °F 48% 29.92 in 10.0 mi NNW 17.3 mph 34.5 mph N/A   Partly Cloudy
11:56 AM 51.1 °F - 32.0 °F 48% 29.94 in 10.0 mi WNW 16.1 mph 25.3 mph N/A   Mostly Cloudy
12:56 PM 50.0 °F - 30.0 °F 46% 29.97 in 10.0 mi NNW 13.8 mph 23.0 mph N/A   Mostly Cloudy
1:56 PM 50.0 °F - 28.0 °F 43% 29.97 in 10.0 mi NW 16.1 mph 23.0 mph N/A   Mostly Cloudy
2:56 PM 50.0 °F - 28.0 °F 43% 29.99 in 10.0 mi NW 15.0 mph 23.0 mph N/A   Overcast
3:56 PM 48.9 °F - 28.0 °F 44% 30.01 in 10.0 mi WNW 12.7 mph 21.9 mph N/A   Scattered Clouds
4:56 PM 48.9 °F - 28.0 °F 44% 30.03 in 10.0 mi NW 9.2 mph - N/A   Overcast
5:56 PM 48.0 °F - 28.0 °F 46% 30.04 in 10.0 mi WNW 6.9 mph - N/A   Overcast
6:56 PM 46.0 °F 42.5 °F 28.9 °F 51% 30.06 in 10.0 mi WNW 6.9 mph - N/A   Overcast
7:56 PM 43.0 °F 40.3 °F 28.0 °F 56% 30.08 in 10.0 mi NW 4.6 mph - N/A   Clear
8:56 PM 37.0 °F - 27.0 °F 67% 30.08 in 10.0 mi Calm Calm - N/A   Clear
9:56 PM 34.0 °F 31.0 °F 27.0 °F 75% 30.08 in 10.0 mi WSW 3.5 mph - N/A   Clear
10:56 PM 35.1 °F - 28.9 °F 78% 30.08 in 10.0 mi Calm Calm - N/A   Clear
11:56 PM 36.0 °F 33.3 °F 28.0 °F 73% 30.07 in 10.0 mi SW 3.5 mph - N/A   Clear